Terminal Aerodrome Forecast
Issued by NWS Charleston, WV

Current Version | Previous Version | Graphics & Text | Print | Product List | Glossary On
Versions: 1 2 3 4 5 6 7 8 9 10 11 12 13 14 15 16 17 18 19 20 21 22 23 24 25 26 27 28
000
FTUS41 KRLX 140528
TAFEKN
TAF
KEKN 140528Z 1406/1506 24012G22KT 3SM -SHSN OVC035
      TEMPO 1407/1409 2SM -SHSN OVC018
     FM140900 27016G29KT 1 1/2SM -SHSN BLSN OVC015
     FM141100 27016G30KT 3SM -SHSN BLSN BKN020
     FM141300 28014G27KT P6SM BKN015
     FM141600 30009G19KT P6SM BKN020
     FM150000 30004KT P6SM BKN025=

USA.gov is the U.S. government's official web portal to all federal, state and local government web resources and services.